User: anonymous   Login
Location: Huntsville
(41.2590°N, 111.7678°W)
Time: 17:29:36
(UTC+00:00)
Language:

Tiros 1 despin weight - Orbit

View from above orbital plane
View from above orbital plane
View from above satellite
View from above satellite

Ground track
Ground track

The orbit data is extracted from the following two-line orbital elements,

1 00115U 60002D   21168.66895816  .00000052  00000-0  33225-4 0  9998
2 00115  48.1672 317.8161 0033946  58.7568 301.6664 14.83779870246044
Epoch (UTC): 17 June 2021 16:03:17
Eccentricity: 0.0033946
inclination: 48.1672°
perigee height: 593 km
apogee height: 641 km
right ascension of ascending node: 317.8161°
argument of perigee: 58.7568°
revolutions per day: 14.83779870
mean anomaly at epoch: 301.6664°
orbit number at epoch: 24604

The dashed part of the orbit path shows where the satellite is in the earth's shadow,  

DLR